Year,Month,Day,Hour,Minute,Value (Times are PST for temperature in C)
2011,05,23,00,00,7.40
2011,05,23,00,01,7.40
2011,05,23,00,02,7.40
2011,05,23,00,03,7.30
2011,05,23,00,04,7.30
2011,05,23,00,05,7.30
2011,05,23,00,06,7.30
2011,05,23,00,07,7.30
2011,05,23,00,08,7.30
2011,05,23,00,09,7.30
2011,05,23,00,10,7.30
2011,05,23,00,11,7.30
2011,05,23,00,12,7.30
2011,05,23,00,13,7.30
2011,05,23,00,14,7.30
2011,05,23,00,15,7.20
2011,05,23,00,16,7.20
2011,05,23,00,17,7.20
2011,05,23,00,18,7.20
2011,05,23,00,19,7.10
2011,05,23,00,20,7.10
2011,05,23,00,21,7.10
2011,05,23,00,22,7.00
2011,05,23,00,23,7.00
2011,05,23,00,24,7.00
2011,05,23,00,25,7.00
2011,05,23,00,26,7.00
2011,05,23,00,27,7.00
2011,05,23,00,28,7.00
2011,05,23,00,29,6.90
2011,05,23,00,30,6.90
2011,05,23,00,31,6.90
2011,05,23,00,32,6.90
2011,05,23,00,33,6.80
2011,05,23,00,34,6.80
2011,05,23,00,35,6.80
2011,05,23,00,36,6.80
2011,05,23,00,37,6.80
2011,05,23,00,38,6.80
2011,05,23,00,39,6.80
2011,05,23,00,40,6.80
2011,05,23,00,41,6.80
2011,05,23,00,42,6.70
2011,05,23,00,43,6.70
2011,05,23,00,44,6.70
2011,05,23,00,45,6.70
2011,05,23,00,46,6.70
2011,05,23,00,47,6.70
2011,05,23,00,48,6.70
2011,05,23,00,49,6.70
2011,05,23,00,50,6.70
2011,05,23,00,51,6.70
2011,05,23,00,52,6.70
2011,05,23,00,53,6.70
2011,05,23,00,54,6.70
2011,05,23,00,55,6.70
2011,05,23,00,56,6.60
2011,05,23,00,57,6.60
2011,05,23,00,58,6.60
2011,05,23,00,59,6.60
2011,05,23,01,00,6.70
2011,05,23,01,01,6.70
2011,05,23,01,02,6.70
2011,05,23,01,03,6.70
2011,05,23,01,04,6.70
2011,05,23,01,05,6.70
2011,05,23,01,06,6.70
2011,05,23,01,07,6.70
2011,05,23,01,08,6.80
2011,05,23,01,09,6.80
2011,05,23,01,10,6.80
2011,05,23,01,11,6.80
2011,05,23,01,12,6.80
2011,05,23,01,13,6.80
2011,05,23,01,14,6.80
2011,05,23,01,15,6.70
2011,05,23,01,16,6.70
2011,05,23,01,17,6.70
2011,05,23,01,18,6.70
2011,05,23,01,19,6.70
2011,05,23,01,20,6.70
2011,05,23,01,21,6.70
2011,05,23,01,22,6.60
2011,05,23,01,23,6.60
2011,05,23,01,24,6.60
2011,05,23,01,25,6.60
2011,05,23,01,26,6.60
2011,05,23,01,27,6.60
2011,05,23,01,28,6.60
2011,05,23,01,29,6.60
2011,05,23,01,30,6.60
2011,05,23,01,31,6.60
2011,05,23,01,32,6.60
2011,05,23,01,33,6.50
2011,05,23,01,34,6.40
2011,05,23,01,35,6.40
2011,05,23,01,36,6.40
2011,05,23,01,37,6.40
2011,05,23,01,38,6.40
2011,05,23,01,39,6.40
2011,05,23,01,40,6.40
2011,05,23,01,41,6.40
2011,05,23,01,42,6.30
2011,05,23,01,43,6.30
2011,05,23,01,44,6.30
2011,05,23,01,45,6.30
2011,05,23,01,46,6.30
2011,05,23,01,47,6.20
2011,05,23,01,48,6.20
2011,05,23,01,49,6.20
2011,05,23,01,50,6.20
2011,05,23,01,51,6.20
2011,05,23,01,52,6.20
2011,05,23,01,53,6.20
2011,05,23,01,54,6.20
2011,05,23,01,55,6.20
2011,05,23,01,56,6.20
2011,05,23,01,57,6.20
2011,05,23,01,58,6.20
2011,05,23,01,59,6.20
2011,05,23,02,00,6.10
2011,05,23,02,01,6.10
2011,05,23,02,02,6.10
2011,05,23,02,03,6.10
2011,05,23,02,04,6.10
2011,05,23,02,05,6.00
2011,05,23,02,06,6.00
2011,05,23,02,07,6.00
2011,05,23,02,08,6.00
2011,05,23,02,09,6.00
2011,05,23,02,10,5.90
2011,05,23,02,11,5.90
2011,05,23,02,12,5.90
2011,05,23,02,13,5.90
2011,05,23,02,14,5.80
2011,05,23,02,15,5.80
2011,05,23,02,16,5.80
2011,05,23,02,17,5.80
2011,05,23,02,18,5.80
2011,05,23,02,19,5.80
2011,05,23,02,20,5.70
2011,05,23,02,21,5.70
2011,05,23,02,22,5.70
2011,05,23,02,23,5.70
2011,05,23,02,24,5.70
2011,05,23,02,25,5.70
2011,05,23,02,26,5.70
2011,05,23,02,27,5.70
2011,05,23,02,28,5.70
2011,05,23,02,29,5.60
2011,05,23,02,30,5.60
2011,05,23,02,31,5.60
2011,05,23,02,32,5.50
2011,05,23,02,33,5.50
2011,05,23,02,34,5.50
2011,05,23,02,35,5.40
2011,05,23,02,36,5.40
2011,05,23,02,37,5.40
2011,05,23,02,38,5.40
2011,05,23,02,39,5.30
2011,05,23,02,40,5.30
2011,05,23,02,41,5.30
2011,05,23,02,42,5.30
2011,05,23,02,43,5.30
2011,05,23,02,44,5.30
2011,05,23,02,45,5.30
2011,05,23,02,46,5.30
2011,05,23,02,47,5.30
2011,05,23,02,48,5.20
2011,05,23,02,49,5.20
2011,05,23,02,50,5.20
2011,05,23,02,51,5.20
2011,05,23,02,52,5.20
2011,05,23,02,53,5.10
2011,05,23,02,54,5.10
2011,05,23,02,55,5.10
2011,05,23,02,56,5.10
2011,05,23,02,57,5.10
2011,05,23,02,58,5.10
2011,05,23,02,59,5.10
2011,05,23,03,00,5.10
2011,05,23,03,01,5.10
2011,05,23,03,02,5.10
2011,05,23,03,03,5.10
2011,05,23,03,04,5.10
2011,05,23,03,05,5.10
2011,05,23,03,06,5.10
2011,05,23,03,07,5.10
2011,05,23,03,08,5.00
2011,05,23,03,09,4.90
2011,05,23,03,10,4.90
2011,05,23,03,11,4.90
2011,05,23,03,12,4.90
2011,05,23,03,13,4.90
2011,05,23,03,14,4.90
2011,05,23,03,15,4.90
2011,05,23,03,16,4.90
2011,05,23,03,17,4.90
2011,05,23,03,18,4.90
2011,05,23,03,19,4.90
2011,05,23,03,20,4.90
2011,05,23,03,21,4.90
2011,05,23,03,22,4.90
2011,05,23,03,23,4.80
2011,05,23,03,24,4.80
2011,05,23,03,25,4.80
2011,05,23,03,26,4.80
2011,05,23,03,27,4.80
2011,05,23,03,28,4.80
2011,05,23,03,29,4.80
2011,05,23,03,30,4.80
2011,05,23,03,31,4.80
2011,05,23,03,32,4.70
2011,05,23,03,33,4.70
2011,05,23,03,34,4.70
2011,05,23,03,35,4.70
2011,05,23,03,36,4.70
2011,05,23,03,37,4.70
2011,05,23,03,38,4.70
2011,05,23,03,39,4.70
2011,05,23,03,40,4.70
2011,05,23,03,41,4.70
2011,05,23,03,42,4.70
2011,05,23,03,43,4.70
2011,05,23,03,44,4.70
2011,05,23,03,45,4.70
2011,05,23,03,46,4.60
2011,05,23,03,47,4.60
2011,05,23,03,48,4.60
2011,05,23,03,49,4.60
2011,05,23,03,50,4.60
2011,05,23,03,51,4.60
2011,05,23,03,52,4.60
2011,05,23,03,53,4.60
2011,05,23,03,54,4.60
2011,05,23,03,55,4.60
2011,05,23,03,56,4.60
2011,05,23,03,57,4.60
2011,05,23,03,58,4.60
2011,05,23,03,59,4.60
2011,05,23,04,00,4.60
2011,05,23,04,01,4.60
2011,05,23,04,02,4.50
2011,05,23,04,03,4.50
2011,05,23,04,04,4.50
2011,05,23,04,05,4.50
2011,05,23,04,06,4.50
2011,05,23,04,07,4.50
2011,05,23,04,08,4.50
2011,05,23,04,09,4.50
2011,05,23,04,10,4.40
2011,05,23,04,11,4.40
2011,05,23,04,12,4.40
2011,05,23,04,13,4.50
2011,05,23,04,14,4.50
2011,05,23,04,15,4.50
2011,05,23,04,16,4.50
2011,05,23,04,17,4.50
2011,05,23,04,18,4.40
2011,05,23,04,19,4.40
2011,05,23,04,20,4.40
2011,05,23,04,21,4.40
2011,05,23,04,22,4.40
2011,05,23,04,23,4.40
2011,05,23,04,24,4.40
2011,05,23,04,25,4.40
2011,05,23,04,26,4.40
2011,05,23,04,27,4.40
2011,05,23,04,28,4.40
2011,05,23,04,29,4.40
2011,05,23,04,30,4.40
2011,05,23,04,31,4.40
2011,05,23,04,32,4.40
2011,05,23,04,33,4.40
2011,05,23,04,34,4.40
2011,05,23,04,35,4.40
2011,05,23,04,36,4.40
2011,05,23,04,37,4.40
2011,05,23,04,38,4.40
2011,05,23,04,39,4.40
2011,05,23,04,40,4.40
2011,05,23,04,41,4.40
2011,05,23,04,42,4.30
2011,05,23,04,43,4.30
2011,05,23,04,44,4.30
2011,05,23,04,45,4.30
2011,05,23,04,46,4.20
2011,05,23,04,47,4.20
2011,05,23,04,48,4.20
2011,05,23,04,49,4.20
2011,05,23,04,50,4.20
2011,05,23,04,51,4.20
2011,05,23,04,52,4.20
2011,05,23,04,53,4.20
2011,05,23,04,54,4.20
2011,05,23,04,55,4.20
2011,05,23,04,56,4.20
2011,05,23,04,57,4.20
2011,05,23,04,58,4.20
2011,05,23,04,59,4.20
2011,05,23,05,00,4.20
2011,05,23,05,01,4.20
2011,05,23,05,02,4.20
2011,05,23,05,03,4.20
2011,05,23,05,04,4.20
2011,05,23,05,05,4.20
2011,05,23,05,06,4.20
2011,05,23,05,07,4.10
2011,05,23,05,08,4.10
2011,05,23,05,09,4.10
2011,05,23,05,10,4.10
2011,05,23,05,11,4.10
2011,05,23,05,12,4.10
2011,05,23,05,13,4.10
2011,05,23,05,14,4.10
2011,05,23,05,15,4.00
2011,05,23,05,16,4.00
2011,05,23,05,17,4.00
2011,05,23,05,18,4.00
2011,05,23,05,19,4.00
2011,05,23,05,20,4.00
2011,05,23,05,21,4.00
2011,05,23,05,22,4.10
2011,05,23,05,23,4.10
2011,05,23,05,24,4.10
2011,05,23,05,25,4.10
2011,05,23,05,26,4.10
2011,05,23,05,27,4.10
2011,05,23,05,28,4.10
2011,05,23,05,29,4.10
2011,05,23,05,30,4.10
2011,05,23,05,31,4.10
2011,05,23,05,32,4.00
2011,05,23,05,33,4.00
2011,05,23,05,34,4.00
2011,05,23,05,35,4.00
2011,05,23,05,36,4.00
2011,05,23,05,37,4.00
2011,05,23,05,38,3.90
2011,05,23,05,39,3.90
2011,05,23,05,40,3.90
2011,05,23,05,41,3.90
2011,05,23,05,42,3.90
2011,05,23,05,43,4.00
2011,05,23,05,44,4.00
2011,05,23,05,45,4.00
2011,05,23,05,46,4.00
2011,05,23,05,47,4.00
2011,05,23,05,48,4.00
2011,05,23,05,49,4.00
2011,05,23,05,50,4.10
2011,05,23,05,51,4.10
2011,05,23,05,52,4.10
2011,05,23,05,53,4.10
2011,05,23,05,54,4.10
2011,05,23,05,55,4.20
2011,05,23,05,56,4.20
2011,05,23,05,57,4.20
2011,05,23,05,58,4.20
2011,05,23,05,59,4.20
2011,05,23,06,00,4.20
2011,05,23,06,01,4.20
2011,05,23,06,02,4.20
2011,05,23,06,03,4.20
2011,05,23,06,04,4.20
2011,05,23,06,05,4.20
2011,05,23,06,06,4.20
2011,05,23,06,07,4.20
2011,05,23,06,08,4.20
2011,05,23,06,09,4.20
2011,05,23,06,10,4.20
2011,05,23,06,11,4.30
2011,05,23,06,12,4.30
2011,05,23,06,13,4.30
2011,05,23,06,14,4.30
2011,05,23,06,15,4.30
2011,05,23,06,16,4.40
2011,05,23,06,17,4.40
2011,05,23,06,18,4.40
2011,05,23,06,19,4.40
2011,05,23,06,20,4.40
2011,05,23,06,21,4.40
2011,05,23,06,22,4.40
2011,05,23,06,23,4.40
2011,05,23,06,24,4.40
2011,05,23,06,25,4.40
2011,05,23,06,26,4.40
2011,05,23,06,27,4.40
2011,05,23,06,28,4.40
2011,05,23,06,29,4.50
2011,05,23,06,30,4.50
2011,05,23,06,31,4.50
2011,05,23,06,32,4.50
2011,05,23,06,33,4.50
2011,05,23,06,34,4.60
2011,05,23,06,35,4.60
2011,05,23,06,36,4.60
2011,05,23,06,37,4.60
2011,05,23,06,38,4.60
2011,05,23,06,39,4.60
2011,05,23,06,40,4.60
2011,05,23,06,41,4.60
2011,05,23,06,42,4.60
2011,05,23,06,43,4.60
2011,05,23,06,44,4.60
2011,05,23,06,45,4.70
2011,05,23,06,46,4.70
2011,05,23,06,47,4.70
2011,05,23,06,48,4.70
2011,05,23,06,49,4.70
2011,05,23,06,50,4.70
2011,05,23,06,51,4.80
2011,05,23,06,52,4.80
2011,05,23,06,53,4.80
2011,05,23,06,54,4.80
2011,05,23,06,55,4.80
2011,05,23,06,56,4.80
2011,05,23,06,57,4.80
2011,05,23,06,58,4.90
2011,05,23,06,59,4.90
2011,05,23,07,00,4.90
2011,05,23,07,01,4.90
2011,05,23,07,02,4.90
2011,05,23,07,03,5.00
2011,05,23,07,04,5.10
2011,05,23,07,05,5.10
2011,05,23,07,06,5.10
2011,05,23,07,07,5.10
2011,05,23,07,08,5.10
2011,05,23,07,09,5.20
2011,05,23,07,10,5.30
2011,05,23,07,11,5.30
2011,05,23,07,12,5.30
2011,05,23,07,13,5.30
2011,05,23,07,14,5.40
2011,05,23,07,15,5.40
2011,05,23,07,16,5.50
2011,05,23,07,17,5.50
2011,05,23,07,18,5.60
2011,05,23,07,19,5.60
2011,05,23,07,20,5.70
2011,05,23,07,21,5.70
2011,05,23,07,22,5.70
2011,05,23,07,23,5.70
2011,05,23,07,24,5.70
2011,05,23,07,25,5.70
2011,05,23,07,26,5.70
2011,05,23,07,27,5.80
2011,05,23,07,28,5.80
2011,05,23,07,29,5.80
2011,05,23,07,30,5.80
2011,05,23,07,31,5.90
2011,05,23,07,32,5.90
2011,05,23,07,33,5.90
2011,05,23,07,34,6.00
2011,05,23,07,35,6.00
2011,05,23,07,36,6.00
2011,05,23,07,37,6.10
2011,05,23,07,38,6.10
2011,05,23,07,39,6.10
2011,05,23,07,40,6.20
2011,05,23,07,41,6.20
2011,05,23,07,42,6.20
2011,05,23,07,43,6.30
2011,05,23,07,44,6.30
2011,05,23,07,45,6.40
2011,05,23,07,46,6.40
2011,05,23,07,47,6.40
2011,05,23,07,48,6.50
2011,05,23,07,49,6.60
2011,05,23,07,50,6.60
2011,05,23,07,51,6.60
2011,05,23,07,52,6.60
2011,05,23,07,53,6.60
2011,05,23,07,54,6.70
2011,05,23,07,55,6.70
2011,05,23,07,56,6.70
2011,05,23,07,57,6.80
2011,05,23,07,58,6.80
2011,05,23,07,59,6.80
2011,05,23,08,00,6.90
2011,05,23,08,01,6.90
2011,05,23,08,02,7.00
2011,05,23,08,03,7.10
2011,05,23,08,04,7.10
2011,05,23,08,05,7.20
2011,05,23,08,06,7.30
2011,05,23,08,07,7.30
2011,05,23,08,08,7.40
2011,05,23,08,09,7.50
2011,05,23,08,10,7.60
2011,05,23,08,11,7.60
2011,05,23,08,12,7.70
2011,05,23,08,13,7.70
2011,05,23,08,14,7.80
2011,05,23,08,15,7.80
2011,05,23,08,16,7.90
2011,05,23,08,17,7.90
2011,05,23,08,18,8.00
2011,05,23,08,19,8.00
2011,05,23,08,20,8.00
2011,05,23,08,21,8.10
2011,05,23,08,22,8.20
2011,05,23,08,23,8.20
2011,05,23,08,24,8.20
2011,05,23,08,25,8.30
2011,05,23,08,26,8.30
2011,05,23,08,27,8.40
2011,05,23,08,28,8.50
2011,05,23,08,29,8.50
2011,05,23,08,30,8.60
2011,05,23,08,31,8.60
2011,05,23,08,32,8.70
2011,05,23,08,33,8.70
2011,05,23,08,34,8.80
2011,05,23,08,35,8.80
2011,05,23,08,36,8.90
2011,05,23,08,37,8.90
2011,05,23,08,38,9.00
2011,05,23,08,39,9.00
2011,05,23,08,40,9.00
2011,05,23,08,41,9.10
2011,05,23,08,42,9.10
2011,05,23,08,43,9.20
2011,05,23,08,44,9.30
2011,05,23,08,45,9.30
2011,05,23,08,46,9.40
2011,05,23,08,47,9.40
2011,05,23,08,48,9.50
2011,05,23,08,49,9.60
2011,05,23,08,50,9.60
2011,05,23,08,51,9.70
2011,05,23,08,52,9.70
2011,05,23,08,53,9.70
2011,05,23,08,54,9.70
2011,05,23,08,55,9.70
2011,05,23,08,56,9.70
2011,05,23,08,57,9.70
2011,05,23,08,58,9.70
2011,05,23,08,59,9.70
2011,05,23,09,00,9.70
2011,05,23,09,01,9.70
2011,05,23,09,02,9.70
2011,05,23,09,03,9.70
2011,05,23,09,04,9.70
2011,05,23,09,05,9.70
2011,05,23,09,06,9.80
2011,05,23,09,07,9.80
2011,05,23,09,08,9.80
2011,05,23,09,09,9.90
2011,05,23,09,10,9.80
2011,05,23,09,11,9.80
2011,05,23,09,12,9.90
2011,05,23,09,13,9.90
2011,05,23,09,14,9.80
2011,05,23,09,15,9.80
2011,05,23,09,16,9.80
2011,05,23,09,17,9.80
2011,05,23,09,18,9.80
2011,05,23,09,19,9.80
2011,05,23,09,20,9.80
2011,05,23,09,21,9.80
2011,05,23,09,22,9.80
2011,05,23,09,23,9.80
2011,05,23,09,24,9.80
2011,05,23,09,25,9.80
2011,05,23,09,26,9.80
2011,05,23,09,27,9.80
2011,05,23,09,28,9.80
2011,05,23,09,29,9.80
2011,05,23,09,30,9.90
2011,05,23,09,31,9.90
2011,05,23,09,32,9.90
2011,05,23,09,33,9.90
2011,05,23,09,34,9.90
2011,05,23,09,35,9.90
2011,05,23,09,36,9.90
2011,05,23,09,37,9.90
2011,05,23,09,38,10.00
2011,05,23,09,39,10.10
2011,05,23,09,40,10.10
2011,05,23,09,41,10.10
2011,05,23,09,42,10.10
2011,05,23,09,43,10.10
2011,05,23,09,44,10.10
2011,05,23,09,45,10.10
2011,05,23,09,46,10.10
2011,05,23,09,47,10.10
2011,05,23,09,48,10.10
2011,05,23,09,49,10.10
2011,05,23,09,50,10.10
2011,05,23,09,51,10.10
2011,05,23,09,52,10.10
2011,05,23,09,53,10.10
2011,05,23,09,54,10.10
2011,05,23,09,55,10.10
2011,05,23,09,56,10.00
2011,05,23,09,57,9.90
2011,05,23,09,58,9.90
2011,05,23,09,59,9.90
2011,05,23,10,00,9.90
2011,05,23,10,01,9.90
2011,05,23,10,02,9.90
2011,05,23,10,03,9.90
2011,05,23,10,04,9.90
2011,05,23,10,05,9.90
2011,05,23,10,06,9.90
2011,05,23,10,07,10.00
2011,05,23,10,08,10.10
2011,05,23,10,09,10.10
2011,05,23,10,10,10.10
2011,05,23,10,11,10.10
2011,05,23,10,12,10.10
2011,05,23,10,13,10.20
2011,05,23,10,14,10.20
2011,05,23,10,15,10.20
2011,05,23,10,16,10.20
2011,05,23,10,17,10.30
2011,05,23,10,18,10.30
2011,05,23,10,19,10.30
2011,05,23,10,20,10.40
2011,05,23,10,21,10.40
2011,05,23,10,22,10.40
2011,05,23,10,23,10.40
2011,05,23,10,24,10.50
2011,05,23,10,25,10.60
2011,05,23,10,26,10.70
2011,05,23,10,27,10.70
2011,05,23,10,28,10.70
2011,05,23,10,29,10.80
2011,05,23,10,30,10.80
2011,05,23,10,31,10.90
2011,05,23,10,32,10.90
2011,05,23,10,33,11.00
2011,05,23,10,34,11.10
2011,05,23,10,35,11.20
2011,05,23,10,36,11.30
2011,05,23,10,37,11.40
2011,05,23,10,38,11.40
2011,05,23,10,39,11.40
2011,05,23,10,40,11.40
2011,05,23,10,41,11.40
2011,05,23,10,42,11.40
2011,05,23,10,43,11.40
2011,05,23,10,44,11.40
2011,05,23,10,45,11.40
2011,05,23,10,46,11.40
2011,05,23,10,47,11.50
2011,05,23,10,48,11.60
2011,05,23,10,49,11.60
2011,05,23,10,50,11.60
2011,05,23,10,51,11.60
2011,05,23,10,52,11.50
2011,05,23,10,53,11.40
2011,05,23,10,54,11.40
2011,05,23,10,55,11.40
2011,05,23,10,56,11.50
2011,05,23,10,57,11.60
2011,05,23,10,58,11.60
2011,05,23,10,59,11.80
2011,05,23,11,00,11.90
2011,05,23,11,01,12.00
2011,05,23,11,02,12.00
2011,05,23,11,03,12.20
2011,05,23,11,04,12.20
2011,05,23,11,05,12.10
2011,05,23,11,06,12.00
2011,05,23,11,07,12.00
2011,05,23,11,08,12.00
2011,05,23,11,09,12.00
2011,05,23,11,10,11.90
2011,05,23,11,11,12.00
2011,05,23,11,12,12.10
2011,05,23,11,13,12.10
2011,05,23,11,14,12.00
2011,05,23,11,15,12.00
2011,05,23,11,16,12.10
2011,05,23,11,17,12.00
2011,05,23,11,18,12.10
2011,05,23,11,19,12.20
2011,05,23,11,20,12.30
2011,05,23,11,21,12.40
2011,05,23,11,22,12.40
2011,05,23,11,23,12.40
2011,05,23,11,24,12.30
2011,05,23,11,25,12.30
2011,05,23,11,26,12.30
2011,05,23,11,27,12.10
2011,05,23,11,28,12.10
2011,05,23,11,29,12.10
2011,05,23,11,30,12.00
2011,05,23,11,31,11.90
2011,05,23,11,32,11.90
2011,05,23,11,33,11.80
2011,05,23,11,34,11.80
2011,05,23,11,35,11.80
2011,05,23,11,36,11.90
2011,05,23,11,37,11.90
2011,05,23,11,38,11.80
2011,05,23,11,39,11.80
2011,05,23,11,40,11.80
2011,05,23,11,41,11.90
2011,05,23,11,42,11.90
2011,05,23,11,43,11.90
2011,05,23,11,44,11.90
2011,05,23,11,45,12.00
2011,05,23,11,46,12.10
2011,05,23,11,47,12.20
2011,05,23,11,48,12.30
2011,05,23,11,49,12.40
2011,05,23,11,50,12.50
2011,05,23,11,51,12.60
2011,05,23,11,52,12.50
2011,05,23,11,53,12.50
2011,05,23,11,54,12.60
2011,05,23,11,55,12.60
2011,05,23,11,56,12.60
2011,05,23,11,57,12.60
2011,05,23,11,58,12.60
2011,05,23,11,59,12.60
2011,05,23,12,00,12.60
2011,05,23,12,01,12.50
2011,05,23,12,02,12.60
2011,05,23,12,03,12.60
2011,05,23,12,04,12.50
2011,05,23,12,05,12.60
2011,05,23,12,06,12.50
2011,05,23,12,07,12.60
2011,05,23,12,08,12.60
2011,05,23,12,09,12.50
2011,05,23,12,10,12.60
2011,05,23,12,11,12.60
2011,05,23,12,12,12.60
2011,05,23,12,13,12.70
2011,05,23,12,14,12.80
2011,05,23,12,15,12.80
2011,05,23,12,16,12.80
2011,05,23,12,17,12.80
2011,05,23,12,18,12.80
2011,05,23,12,19,12.90
2011,05,23,12,20,12.90
2011,05,23,12,21,13.00
2011,05,23,12,22,13.10
2011,05,23,12,23,13.20
2011,05,23,12,24,13.30
2011,05,23,12,25,13.30
2011,05,23,12,26,13.30
2011,05,23,12,27,13.40
2011,05,23,12,28,13.50
2011,05,23,12,29,13.60
2011,05,23,12,30,13.70
2011,05,23,12,31,13.70
2011,05,23,12,32,13.70
2011,05,23,12,33,13.70
2011,05,23,12,34,13.60
2011,05,23,12,35,13.60
2011,05,23,12,36,13.70
2011,05,23,12,37,13.70
2011,05,23,12,38,13.80
2011,05,23,12,39,13.90
2011,05,23,12,40,13.90
2011,05,23,12,41,14.00
2011,05,23,12,42,14.00
2011,05,23,12,43,14.10
2011,05,23,12,44,14.00
2011,05,23,12,45,13.90
2011,05,23,12,46,14.00
2011,05,23,12,47,14.00
2011,05,23,12,48,14.10
2011,05,23,12,49,14.10
2011,05,23,12,50,14.10
2011,05,23,12,51,14.10
2011,05,23,12,52,14.10
2011,05,23,12,53,14.20
2011,05,23,12,54,14.20
2011,05,23,12,55,14.20
2011,05,23,12,56,14.20
2011,05,23,12,57,14.20
2011,05,23,12,58,14.20
2011,05,23,12,59,14.20
2011,05,23,13,00,14.10
2011,05,23,13,01,14.00
2011,05,23,13,02,14.00
2011,05,23,13,03,14.00
2011,05,23,13,04,14.00
2011,05,23,13,05,14.10
2011,05,23,13,06,14.10
2011,05,23,13,07,14.00
2011,05,23,13,08,13.90
2011,05,23,13,09,13.80
2011,05,23,13,10,13.80
2011,05,23,13,11,13.80
2011,05,23,13,12,13.80
2011,05,23,13,13,13.80
2011,05,23,13,14,13.80
2011,05,23,13,15,13.80
2011,05,23,13,16,13.80
2011,05,23,13,17,13.90
2011,05,23,13,18,13.90
2011,05,23,13,19,13.90
2011,05,23,13,20,13.90
2011,05,23,13,21,13.90
2011,05,23,13,22,13.90
2011,05,23,13,23,14.00
2011,05,23,13,24,14.10
2011,05,23,13,25,14.20
2011,05,23,13,26,14.40
2011,05,23,13,27,14.50
2011,05,23,13,28,14.60
2011,05,23,13,29,14.70
2011,05,23,13,30,14.80
2011,05,23,13,31,14.80
2011,05,23,13,32,14.90
2011,05,23,13,33,15.00
2011,05,23,13,34,15.10
2011,05,23,13,35,15.20
2011,05,23,13,36,15.20
2011,05,23,13,37,15.20
2011,05,23,13,38,15.30
2011,05,23,13,39,15.30
2011,05,23,13,40,15.30
2011,05,23,13,41,15.40
2011,05,23,13,42,15.40
2011,05,23,13,43,15.40
2011,05,23,13,44,15.30
2011,05,23,13,45,15.30
2011,05,23,13,46,15.30
2011,05,23,13,47,15.20
2011,05,23,13,48,15.10
2011,05,23,13,49,15.10
2011,05,23,13,50,15.00
2011,05,23,13,51,15.00
2011,05,23,13,52,15.00
2011,05,23,13,53,14.80
2011,05,23,13,54,14.70
2011,05,23,13,55,14.50
2011,05,23,13,56,14.30
2011,05,23,13,57,14.20
2011,05,23,13,58,14.20
2011,05,23,13,59,14.20
2011,05,23,14,00,14.20
2011,05,23,14,01,14.20
2011,05,23,14,02,14.20
2011,05,23,14,03,14.20
2011,05,23,14,04,14.20
2011,05,23,14,05,14.20
2011,05,23,14,06,14.20
2011,05,23,14,07,14.30
2011,05,23,14,08,14.30
2011,05,23,14,09,14.40
2011,05,23,14,10,14.40
2011,05,23,14,11,14.40
2011,05,23,14,12,14.40
2011,05,23,14,13,14.40
2011,05,23,14,14,14.50
2011,05,23,14,15,14.50
2011,05,23,14,16,14.50
2011,05,23,14,17,14.60
2011,05,23,14,18,14.50
2011,05,23,14,19,14.40
2011,05,23,14,20,14.40
2011,05,23,14,21,14.40
2011,05,23,14,22,14.40
2011,05,23,14,23,14.40
2011,05,23,14,24,14.40
2011,05,23,14,25,14.50
2011,05,23,14,26,14.50
2011,05,23,14,27,14.60
2011,05,23,14,28,14.70
2011,05,23,14,29,14.70
2011,05,23,14,30,14.80
2011,05,23,14,31,14.90
2011,05,23,14,32,15.00
2011,05,23,14,33,14.90
2011,05,23,14,34,15.10
2011,05,23,14,35,15.20
2011,05,23,14,36,15.20
2011,05,23,14,37,15.20
2011,05,23,14,38,15.20
2011,05,23,14,39,15.20
2011,05,23,14,40,15.20
2011,05,23,14,41,15.30
2011,05,23,14,42,15.30
2011,05,23,14,43,15.40
2011,05,23,14,44,15.50
2011,05,23,14,45,15.50
2011,05,23,14,46,15.50
2011,05,23,14,47,15.50
2011,05,23,14,48,15.50
2011,05,23,14,49,15.30
2011,05,23,14,50,15.30
2011,05,23,14,51,15.30
2011,05,23,14,52,15.30
2011,05,23,14,53,15.30
2011,05,23,14,54,15.30
2011,05,23,14,55,15.20
2011,05,23,14,56,15.20
2011,05,23,14,57,15.20
2011,05,23,14,58,15.10
2011,05,23,14,59,15.10
2011,05,23,15,00,15.10
2011,05,23,15,01,15.20
2011,05,23,15,02,15.30
2011,05,23,15,03,15.30
2011,05,23,15,04,15.30
2011,05,23,15,05,15.30
2011,05,23,15,06,15.20
2011,05,23,15,07,15.20
2011,05,23,15,08,15.20
2011,05,23,15,09,15.20
2011,05,23,15,10,15.30
2011,05,23,15,11,15.30
2011,05,23,15,12,15.30
2011,05,23,15,13,15.20
2011,05,23,15,14,15.20
2011,05,23,15,15,15.20
2011,05,23,15,16,15.20
2011,05,23,15,17,15.20
2011,05,23,15,18,15.30
2011,05,23,15,19,15.30
2011,05,23,15,20,15.30
2011,05,23,15,21,15.30
2011,05,23,15,22,15.30
2011,05,23,15,23,15.20
2011,05,23,15,24,15.20
2011,05,23,15,25,15.20
2011,05,23,15,26,15.20
2011,05,23,15,27,15.20
2011,05,23,15,28,15.20
2011,05,23,15,29,15.20
2011,05,23,15,30,15.20
2011,05,23,15,31,15.30
2011,05,23,15,32,15.50
2011,05,23,15,33,15.50
2011,05,23,15,34,15.60
2011,05,23,15,35,15.60
2011,05,23,15,36,15.60
2011,05,23,15,37,15.40
2011,05,23,15,38,15.30
2011,05,23,15,39,15.20
2011,05,23,15,40,15.20
2011,05,23,15,41,15.20
2011,05,23,15,42,15.20
2011,05,23,15,43,15.20
2011,05,23,15,44,15.20
2011,05,23,15,45,15.20
2011,05,23,15,46,15.20
2011,05,23,15,47,15.20
2011,05,23,15,48,15.10
2011,05,23,15,49,15.20
2011,05,23,15,50,15.30
2011,05,23,15,51,15.20
2011,05,23,15,52,15.30
2011,05,23,15,53,15.30
2011,05,23,15,54,15.30
2011,05,23,15,55,15.30
2011,05,23,15,56,15.30
2011,05,23,15,57,15.20
2011,05,23,15,58,15.10
2011,05,23,15,59,15.10
2011,05,23,16,00,15.10
2011,05,23,16,01,15.10
2011,05,23,16,02,15.10
2011,05,23,16,03,15.00
2011,05,23,16,04,15.00
2011,05,23,16,05,15.00
2011,05,23,16,06,15.00
2011,05,23,16,07,15.10
2011,05,23,16,08,15.10
2011,05,23,16,09,15.10
2011,05,23,16,10,15.10
2011,05,23,16,11,15.00
2011,05,23,16,12,14.90
2011,05,23,16,13,14.80
2011,05,23,16,14,14.70
2011,05,23,16,15,14.70
2011,05,23,16,16,14.60
2011,05,23,16,17,14.60
2011,05,23,16,18,14.50
2011,05,23,16,19,14.50
2011,05,23,16,20,14.50
2011,05,23,16,21,14.40
2011,05,23,16,22,14.30
2011,05,23,16,23,14.20
2011,05,23,16,24,14.20
2011,05,23,16,25,14.20
2011,05,23,16,26,14.20
2011,05,23,16,27,14.20
2011,05,23,16,28,14.20
2011,05,23,16,29,14.20
2011,05,23,16,30,14.30
2011,05,23,16,31,14.30
2011,05,23,16,32,14.30
2011,05,23,16,33,14.30
2011,05,23,16,34,14.40
2011,05,23,16,35,14.40
2011,05,23,16,36,14.40
2011,05,23,16,37,14.40
2011,05,23,16,38,14.40
2011,05,23,16,39,14.40
2011,05,23,16,40,14.40
2011,05,23,16,41,14.50
2011,05,23,16,42,14.60
2011,05,23,16,43,14.70
2011,05,23,16,44,14.80
2011,05,23,16,45,14.80
2011,05,23,16,46,14.90
2011,05,23,16,47,14.90
2011,05,23,16,48,14.90
2011,05,23,16,49,14.90
2011,05,23,16,50,14.90
2011,05,23,16,51,14.80
2011,05,23,16,52,14.80
2011,05,23,16,53,14.80
2011,05,23,16,54,14.90
2011,05,23,16,55,14.90
2011,05,23,16,56,15.00
2011,05,23,16,57,14.90
2011,05,23,16,58,14.90
2011,05,23,16,59,14.80
2011,05,23,17,00,14.80
2011,05,23,17,01,14.90
2011,05,23,17,02,15.00
2011,05,23,17,03,15.20
2011,05,23,17,04,15.30
2011,05,23,17,05,15.30
2011,05,23,17,06,15.30
2011,05,23,17,07,15.30
2011,05,23,17,08,15.40
2011,05,23,17,09,15.40
2011,05,23,17,10,15.40
2011,05,23,17,11,15.40
2011,05,23,17,12,15.30
2011,05,23,17,13,15.40
2011,05,23,17,14,15.40
2011,05,23,17,15,15.30
2011,05,23,17,16,15.30
2011,05,23,17,17,15.40
2011,05,23,17,18,15.50
2011,05,23,17,19,15.50
2011,05,23,17,20,15.50
2011,05,23,17,21,15.50
2011,05,23,17,22,15.40
2011,05,23,17,23,15.30
2011,05,23,17,24,15.30
2011,05,23,17,25,15.30
2011,05,23,17,26,15.30
2011,05,23,17,27,15.30
2011,05,23,17,28,15.20
2011,05,23,17,29,15.20
2011,05,23,17,30,15.30
2011,05,23,17,31,15.30
2011,05,23,17,32,15.30
2011,05,23,17,33,15.30
2011,05,23,17,34,15.30
2011,05,23,17,35,15.20
2011,05,23,17,36,15.10
2011,05,23,17,37,15.00
2011,05,23,17,38,15.00
2011,05,23,17,39,15.10
2011,05,23,17,40,15.10
2011,05,23,17,41,15.00
2011,05,23,17,42,15.00
2011,05,23,17,43,15.00
2011,05,23,17,44,15.00
2011,05,23,17,45,15.10